Regional Weather Roundup
Issued by NWS

Home | Current Version | Previous Version | Graphics & Text | Print | Product List | Glossary On
Versions: 1 2 3 4 5 6 7 8 9 10 11 12 13 14 15 16 17 18 19 20 21 22 23 24 25 26 27 28 29 30 31 32 33 34 35 36 37 38 39 40 41 42 43 44 45 46 47 48 49 50
000
ASUS44 KMEG 030900
RWRTN
TENNESSEE HOURLY STATE WEATHER ROUNDUP
NATIONAL WEATHER SERVICE MEMPHIS TN
400 AM CDT MON AUG 03 2015

TNZ002-004-019-021-049-052-054-088>092-031000-
WEST TENNESSEE

CITY           SKY/WX    TMP DP  RH WIND       PRES   REMARKS
MEMPHIS INTL   CLEAR     76  69  79 CALM      29.91R
NWS MEMPHIS      N/A     71 N/A N/A MISG        N/A
JACKSON        CLEAR     70  67  90 S3        29.90S
DYERSBURG        N/A    N/A N/A N/A MISG        N/A
PARIS          CLEAR     66  63  88 CALM      29.91S
LEXINGTON      CLEAR     66  66 100 CALM      29.91R
$$

TNZ008-025-027-028-033-062-065-066-031000-
NORTH MIDDLE TENNESSEE

CITY           SKY/WX    TMP DP  RH WIND       PRES   REMARKS
NASHVILLE      PTCLDY    65  64  97 S3        29.92S
CLARKSVILLE    CLEAR     66  65  96 CALM      29.90S FOG
CROSSVILLE     PTCLDY    61  58  90 CALM      29.98S
$$

TNZ061-075-076-078-094-096-097-031000-
SOUTH MIDDLE TENNESSEE

CITY           SKY/WX    TMP DP  RH WIND       PRES   REMARKS
FAYETTEVILLE     N/A     63  59  88 NE5       29.94R
TULLAHOMA      CLEAR     59  55  88 CALM      29.95S
WINCHESTER     CLEAR     59  57  94 CALM      29.95R
COLUMBIA       CLEAR     63  63 100 CALM      29.92R
SHELBYVILLE    CLEAR     63  63 100 CALM      29.94S
$$

TNZ017-018-042-046-047-031000-
NORTHEAST TENNESSEE

CITY           SKY/WX    TMP DP  RH WIND       PRES   REMARKS
TRI CITIES     CLEAR     62  60  93 CALM      29.95S
$$

TNZ012-013-036-069-073-074-031000-
CENTRAL EAST TENNESSEE

CITY           SKY/WX    TMP DP  RH WIND       PRES   REMARKS
KNOXVILLE      MOCLDY    69  65  86 CALM      29.92S
OAK RIDGE      PTCLDY    64  62  93 CALM      29.94S
$$

TNZ083-085-099-031000-
SOUTHEAST TENNESSEE

CITY           SKY/WX    TMP DP  RH WIND       PRES   REMARKS
CHATTANOOGA    CLEAR     70  65  84 NW3       29.92R
$$

SKY/WX REPORTED AS FAIR MEANS FEW OR NO CLOUDS BELOW
12 THOUSAND FEET.



USA.gov is the U.S. government's official web portal to all federal, state and local government web resources and services.